Simultaneous Nadir Overpasses (SNOs) Predictions

Prediction of SNOs between GOES-16 and LANDSAT-8 Satellite Orbit:

Table of predicted SNOs for the next 14.0 days since TLE Epoch: 8/26/2022
Index Date Time (GOES-16) GOES-16 Lat,Lon LANDSAT-8 Lat,Lon Distance(km) Time Diff (sec)
1 08/28/2022 15:09:42 -0.03, -75.22 -0.30, -73.94 145.41 80
2 08/29/2022 03:31:06 0.03, -75.21 -0.81, -79.13 445.87 80
3 08/30/2022 14:57:31 -0.03, -75.23 -0.96, -70.99 483.55 80
4 08/31/2022 03:18:55 0.03, -75.23 -0.16, -76.17 107.63 80
5 09/02/2022 03:04:03 0.03, -75.24 0.45, -73.21 230.87 80
6 09/02/2022 15:25:19 -0.03, -75.26 0.61, -78.37 353.48 80
7 09/04/2022 15:15:47 -0.02, -75.28 0.01, -75.41 14.94 80
8 09/06/2022 15:00:55 -0.01, -75.30 -0.61, -72.44 324.00 80
9 09/07/2022 03:24:59 0.01, -75.29 -0.50, -77.63 266.84 80
10 09/09/2022 03:10:07 0.00, -75.32 0.12, -74.67 73.01 80
